Baker, MT

5:56 PM MDT on September 23, 2017 (GMT -0600)
Baker Municipal

Weather History for KBHK - January, 2013

Change the Weather History Date:

Thursday, January 3, 2013

  Actual Average Record
Temperature  
Mean Temperature 16 °F -  
Max Temperature 28 °F 44 °F 51 °F (2012)
Min Temperature 5 °F 38 °F -20 °F (2017)
Degree Days  
Heating Degree Days 48    
Moisture  
Dew Point 7 °F    
Average Humidity 65    
Maximum Humidity 84    
Minimum Humidity 47    
Precipitation  
Precipitation 0.00 in - - ()
Sea Level Pressure  
Sea Level Pressure 30.27 in    
Wind  
Wind Speed 9 mph (West)    
Max Wind Speed 17 mph    
Max Gust Speed -    
Visibility 10 miles    
Events      
Averages and records for this station are not official NWS values.
T = Trace of Precipitation, MM = Missing Value Source: NWS Daily Summary

Daily Weather History Graph

Daily Weather History Graph

Search for Another Location

Airport or City:

Trip Planner

Search our weather history database for the weather conditions in past years. The results will help you decide how hot, cold, wet, or windy it might be!

Date:

Astronomy

Jan. 03, 2013 Rise Set
Actual Time 7:40 AM MST 4:23 PM MST
Civil Twilight 7:05 AM MST 4:58 PM MST
Nautical Twilight 6:27 AM MST 5:36 PM MST
Astronomical Twilight 5:51 AM MST 6:12 PM MST
Moon 11:26 PM MST (1/3) 10:29 AM MST (1/3)
Length of Visible Light 9h 52m
Length of Day
8h 43m
Waning Gibbous, 65% of the Moon is Illuminated
Jan 3
Waning Gibbous
Jan 4
Last Quarter
Jan 11
New
Jan 18
First Quarter
Jan 26
Full

Hourly Weather History & Observations

Time (MST) Temp. Windchill Dew Point Humidity Pressure Visibility Wind Dir Wind Speed Gust Speed Precip Events Conditions
12:51 AM 19.9 °F 8.6 °F 12.9 °F 74% 30.36 in 10.0 mi WNW 10.4 mph - N/A   Overcast
1:51 AM 19.0 °F 6.8 °F 12.0 °F 74% 30.36 in 10.0 mi West 11.5 mph - N/A   Overcast
2:46 AM 14.0 °F 2.0 °F 8.6 °F 79% 30.24 in 10.0 mi WSW 9.2 mph - N/A   Scattered Clouds
2:51 AM 12.9 °F 2.6 °F 8.1 °F 81% 30.37 in 10.0 mi WSW 6.9 mph - N/A   Partly Cloudy
3:51 AM 10.9 °F -2.6 °F 6.1 °F 81% 30.36 in 10.0 mi West 10.4 mph - N/A   Clear
4:51 AM 9.0 °F 2.4 °F 3.9 °F 80% 30.35 in 10.0 mi WSW 3.5 mph - N/A   Clear
5:51 AM 5.0 °F - 1.0 °F 84% 30.34 in 10.0 mi Calm Calm - N/A   Clear
6:51 AM 6.1 °F -0.9 °F 1.0 °F 80% 30.34 in 10.0 mi NW 3.5 mph - N/A   Clear
7:51 AM 10.0 °F 1.8 °F 3.9 °F 76% 30.31 in 10.0 mi WNW 4.6 mph - N/A   Clear
8:51 AM 12.0 °F 2.7 °F 5.0 °F 73% 30.31 in 10.0 mi WNW 5.8 mph - N/A   Clear
9:51 AM 18.0 °F 11.1 °F 8.1 °F 65% 30.30 in 10.0 mi SW 4.6 mph - N/A   Clear
10:51 AM 24.1 °F 14.4 °F 8.1 °F 51% 30.26 in 10.0 mi West 9.2 mph - N/A   Clear
11:51 AM 27.0 °F 19.5 °F 9.0 °F 47% 30.22 in 10.0 mi West 6.9 mph - N/A   Clear
1:51 PM 28.9 °F 19.2 °F 10.9 °F 47% 30.17 in 10.0 mi WSW 11.5 mph - N/A   Clear
2:51 PM 28.0 °F 17.5 °F 10.0 °F 47% 30.18 in 10.0 mi WSW 12.7 mph - N/A   Clear
3:51 PM 26.1 °F 18.4 °F 9.0 °F 49% 30.20 in 10.0 mi WNW 6.9 mph - N/A   Clear
5:51 PM 19.9 °F 10.1 °F 6.1 °F 55% 30.22 in 10.0 mi WNW 8.1 mph - N/A   Clear
6:51 PM 21.0 °F 7.6 °F 7.0 °F 55% 30.22 in 10.0 mi West 15.0 mph - N/A   Clear
7:51 PM 18.0 °F 4.2 °F 5.0 °F 57% 30.22 in 10.0 mi West 13.8 mph - N/A   Clear
8:51 PM 19.0 °F 7.5 °F 6.1 °F 57% 30.21 in 10.0 mi West 10.4 mph - N/A   Clear
9:51 PM 19.9 °F 5.2 °F 6.1 °F 55% 30.20 in 10.0 mi WSW 17.3 mph - N/A   Clear
10:51 PM 19.0 °F 5.6 °F 6.1 °F 57% 30.19 in 10.0 mi West 13.8 mph - N/A   Clear
11:51 PM 14.0 °F 2.9 °F 3.0 °F 62% 30.19 in 10.0 mi WNW 8.1 mph - N/A   Clear